�������l�o���
Date,Time,MP-1(��Sv/h),MP-2(��Sv/h),MP-3(��Sv/h),MP-4(��Sv/h),MP-5(��Sv/h),MP-6(��Sv/h),MP-7(��Sv/h),MP-8(��Sv/h),����,����(m/s),���J
2018/08/30,00:00,0.813,1.176,0.838,1.499,1.081,0.461,0.817,0.773,�k�k��,0.9,��
2018/08/30,00:10,0.810,1.179,0.837,1.500,1.079,0.464,0.817,0.774,-,CALM,��
2018/08/30,00:20,0.812,1.179,0.839,1.500,1.080,0.462,0.817,0.775,-,CALM,��
2018/08/30,00:30,0.812,1.180,0.836,1.501,1.081,0.463,0.817,0.772,-,CALM,��
2018/08/30,00:40,0.810,1.177,0.839,1.501,1.079,0.464,0.816,0.774,�쓌,0.6,��
2018/08/30,00:50,0.811,1.179,0.836,1.500,1.084,0.464,0.817,0.774,-,CALM,��
2018/08/30,01:00,0.812,1.177,0.839,1.500,1.080,0.463,0.815,0.772,�쓌,0.6,��
2018/08/30,01:10,0.813,1.179,0.838,1.500,1.079,0.462,0.815,0.772,��,0.6,��
2018/08/30,01:20,0.811,1.179,0.840,1.500,1.077,0.463,0.816,0.773,��,0.9,��
2018/08/30,01:30,0.809,1.178,0.837,1.501,1.080,0.463,0.815,0.773,��,2.5,��
2018/08/30,01:40,0.812,1.179,0.839,1.500,1.080,0.464,0.814,0.775,��,3.0,��
2018/08/30,01:50,0.811,1.180,0.838,1.503,1.079,0.464,0.816,0.774,��,2.9,��
2018/08/30,02:00,0.811,1.179,0.838,1.501,1.082,0.463,0.816,0.773,��,2.5,��
2018/08/30,02:10,0.811,1.178,0.840,1.500,1.082,0.462,0.816,0.772,��,2.8,��
2018/08/30,02:20,0.812,1.178,0.839,1.501,1.080,0.464,0.816,0.774,��,2.6,��
2018/08/30,02:30,0.812,1.178,0.838,1.501,1.081,0.463,0.816,0.773,��,4.0,��
2018/08/30,02:40,0.812,1.180,0.839,1.502,1.081,0.462,0.816,0.773,��,4.7,��
2018/08/30,02:50,0.810,1.178,0.839,1.500,1.080,0.463,0.815,0.774,��,3.2,��
2018/08/30,03:00,0.812,1.178,0.839,1.502,1.083,0.463,0.815,0.776,��,4.3,��
2018/08/30,03:10,0.812,1.178,0.839,1.502,1.080,0.462,0.815,0.772,��,4.7,��
2018/08/30,03:20,0.812,1.178,0.840,1.501,1.081,0.464,0.816,0.774,��,3.7,��
2018/08/30,03:30,0.810,1.179,0.841,1.502,1.081,0.463,0.816,0.773,��쓌,3.2,��
2018/08/30,03:40,0.811,1.179,0.840,1.501,1.079,0.463,0.814,0.773,��쓌,3.7,��
2018/08/30,03:50,0.812,1.179,0.840,1.501,1.080,0.463,0.817,0.774,��쓌,3.0,��
2018/08/30,04:00,0.810,1.180,0.840,1.499,1.082,0.463,0.814,0.772,��,3.8,��
2018/08/30,04:10,0.813,1.178,0.840,1.502,1.081,0.464,0.817,0.774,��,3.8,��
2018/08/30,04:20,0.812,1.178,0.838,1.500,1.081,0.465,0.817,0.773,��,3.0,��
2018/08/30,04:30,0.812,1.181,0.839,1.500,1.081,0.465,0.816,0.772,��,3.8,��
2018/08/30,04:40,0.812,1.179,0.839,1.500,1.084,0.464,0.814,0.774,��,4.3,��
2018/08/30,04:50,0.812,1.178,0.841,1.503,1.083,0.464,0.817,0.774,��,4.8,��
2018/08/30,05:00,0.812,1.180,0.839,1.500,1.082,0.464,0.818,0.774,��,4.8,��
2018/08/30,05:10,0.812,1.180,0.841,1.501,1.079,0.465,0.816,0.775,��,5.2,��
2018/08/30,05:20,0.813,1.182,0.838,1.502,1.081,0.465,0.816,0.774,��,5.5,��
2018/08/30,05:30,0.812,1.180,0.839,1.501,1.082,0.466,0.817,0.774,��,5.6,��
2018/08/30,05:40,0.813,1.180,0.841,1.501,1.083,0.466,0.817,0.774,��,5.7,��
2018/08/30,05:50,0.811,1.181,0.840,1.501,1.081,0.465,0.818,0.775,��,6.1,��
2018/08/30,06:00,0.811,1.180,0.838,1.502,1.082,0.465,0.818,0.774,��,5.2,��
2018/08/30,06:10,0.816,1.181,0.840,1.499,1.081,0.465,0.817,0.775,��쐼,3.2,��
2018/08/30,06:20,0.813,1.181,0.840,1.503,1.082,0.466,0.817,0.773,��쐼,4.0,��
2018/08/30,06:30,0.813,1.183,0.843,1.505,1.083,0.466,0.818,0.775,��쐼,4.3,��
2018/08/30,06:40,0.814,1.181,0.840,1.503,1.083,0.466,0.818,0.775,��쐼,3.5,��
2018/08/30,06:50,0.815,1.180,0.837,1.502,1.082,0.466,0.818,0.774,��쐼,2.9,��
2018/08/30,07:00,0.812,1.181,0.841,1.502,1.081,0.466,0.817,0.773,��,4.1,��
2018/08/30,07:10,0.812,1.181,0.840,1.505,1.083,0.464,0.818,0.773,��,2.9,��
2018/08/30,07:20,0.814,1.181,0.840,1.501,1.083,0.466,0.816,0.777,��,2.3,��
2018/08/30,07:30,0.813,1.179,0.841,1.502,1.082,0.466,0.819,0.776,��쓌,2.8,��
2018/08/30,07:40,0.815,1.183,0.842,1.502,1.082,0.466,0.818,0.775,��쓌,2.2,��
2018/08/30,07:50,0.816,1.182,0.840,1.501,1.083,0.469,0.817,0.774,��쐼,0.8,��
2018/08/30,08:00,0.817,1.182,0.841,1.503,1.083,0.468,0.819,0.775,���k��,0.9,��
2018/08/30,08:10,0.815,1.180,0.840,1.506,1.085,0.467,0.819,0.773,�k��,1.2,��
2018/08/30,08:20,0.816,1.182,0.840,1.503,1.084,0.468,0.818,0.774,-,CALM,��
2018/08/30,08:30,0.815,1.183,0.838,1.504,1.085,0.467,0.818,0.774,-,CALM,��
2018/08/30,08:40,0.815,1.180,0.839,1.503,1.083,0.465,0.818,0.773,��쓌,0.6,��
2018/08/30,08:50,0.813,1.181,0.841,1.504,1.084,0.467,0.819,0.773,�쓌,1.2,��
2018/08/30,09:00,0.814,1.183,0.839,1.501,1.086,0.467,0.818,0.773,���쓌,1.9,��
2018/08/30,09:10,0.814,1.181,0.840,1.503,1.084,0.466,0.819,0.774,�쓌,3.1,��
2018/08/30,09:20,0.816,1.185,0.839,1.507,1.090,0.468,0.818,0.773,�쓌,1.4,��
2018/08/30,09:30,0.816,1.185,0.841,1.507,1.086,0.467,0.819,0.772,��,1.1,��
2018/08/30,09:40,0.816,1.183,0.840,1.505,1.088,0.469,0.819,0.774,��쐼,1.7,��
2018/08/30,09:50,0.816,1.180,0.843,1.505,1.087,0.469,0.820,0.774,��쐼,0.9,��
2018/08/30,10:00,0.818,1.187,0.842,1.506,1.089,0.468,0.819,0.775,��쓌,1.7,��
2018/08/30,10:10,0.818,1.185,0.842,1.505,1.089,0.467,0.819,0.773,��쓌,2.5,��
2018/08/30,10:20,0.818,1.185,0.845,1.504,1.093,0.469,0.820,0.774,��쓌,3.0,��
2018/08/30,10:30,0.822,1.185,0.845,1.504,1.095,0.469,0.822,0.776,�쓌,4.5,-
2018/08/30,10:40,0.818,1.189,0.843,1.506,1.091,0.471,0.822,0.773,��쓌,5.1,-
2018/08/30,10:50,0.821,1.192,0.843,1.504,1.092,0.468,0.821,0.774,��쓌,5.3,�L
2018/08/30,11:00,0.821,1.190,0.845,1.508,1.093,0.469,0.821,0.774,��쓌,4.8,��
2018/08/30,11:10,0.821,1.190,0.847,1.510,1.093,0.467,0.823,0.774,��쓌,5.2,��
2018/08/30,11:20,0.820,1.192,0.845,1.508,1.095,0.470,0.822,0.775,��쓌,6.7,��
2018/08/30,11:30,0.821,1.194,0.847,1.507,1.095,0.468,0.822,0.775,��쓌,6.0,��
2018/08/30,11:40,0.823,1.194,0.848,1.507,1.094,0.470,0.822,0.777,��,6.4,��
2018/08/30,11:50,0.824,1.192,0.847,1.508,1.097,0.468,0.823,0.775,��쓌,5.7,��
2018/08/30,12:00,0.823,1.193,0.846,1.509,1.095,0.468,0.823,0.775,��쓌,4.1,��
2018/08/30,12:10,0.822,1.193,0.848,1.508,1.096,0.467,0.821,0.775,��,3.5,��
2018/08/30,12:20,0.820,1.195,0.846,1.509,1.096,0.468,0.822,0.776,��쓌,3.7,��
2018/08/30,12:30,0.821,1.195,0.846,1.510,1.094,0.467,0.823,0.777,��쓌,5.0,��
2018/08/30,12:40,0.822,1.190,0.847,1.509,1.097,0.467,0.821,0.773,��쓌,6.2,��
2018/08/30,12:50,0.821,1.195,0.848,1.510,1.099,0.467,0.821,0.776,��쓌,6.5,��
2018/08/30,13:00,0.821,1.193,0.846,1.511,1.099,0.467,0.822,0.775,��쓌,6.3,��
2018/08/30,13:10,0.821,1.195,0.846,1.511,1.099,0.466,0.821,0.776,��쓌,6.0,��
2018/08/30,13:20,0.820,1.194,0.846,1.514,1.099,0.465,0.821,0.774,��쓌,6.1,��
2018/08/30,13:30,0.822,1.194,0.846,1.512,1.100,0.465,0.821,0.775,��쓌,5.4,��
2018/08/30,13:40,0.823,1.197,0.846,1.513,1.098,0.466,0.822,0.774,��,4.4,��
2018/08/30,13:50,0.821,1.197,0.848,1.514,1.099,0.468,0.822,0.775,��,2.3,��
2018/08/30,14:00,0.823,1.199,0.848,1.515,1.099,0.468,0.822,0.773,��쓌,2.2,��
2018/08/30,14:10,0.824,1.196,0.847,1.513,1.102,0.468,0.820,0.775,�쓌,3.2,��
2018/08/30,14:20,0.823,1.195,0.847,1.513,1.102,0.467,0.821,0.774,�쓌,2.5,��
2018/08/30,14:30,0.822,1.196,0.847,1.511,1.103,0.467,0.821,0.775,�쓌,2.3,��
2018/08/30,14:40,0.824,1.198,0.845,1.513,1.100,0.466,0.820,0.775,�쓌,1.7,��
2018/08/30,14:50,0.823,1.198,0.847,1.513,1.101,0.466,0.821,0.775,��,2.3,�L
2018/08/30,15:00,0.824,1.197,0.848,1.513,1.100,0.465,0.821,0.776,���쓌,3.1,��
2018/08/30,15:10,0.823,1.197,0.846,1.512,1.099,0.465,0.822,0.776,�쓌,1.7,��
2018/08/30,15:20,0.820,1.200,0.848,1.511,1.099,0.466,0.822,0.776,��쓌,1.2,�L
2018/08/30,15:30,0.821,1.196,0.847,1.513,1.097,0.465,0.820,0.773,��,1.4,�L
2018/08/30,15:40,0.822,1.200,0.847,1.513,1.099,0.466,0.821,0.774,��쐼,0.9,�L
2018/08/30,15:50,0.820,1.200,0.848,1.512,1.096,0.468,0.820,0.773,��쐼,2.6,�L
2018/08/30,16:00,0.822,1.201,0.850,1.512,1.097,0.468,0.822,0.776,��,3.0,�L
2018/08/30,16:10,0.822,1.202,0.850,1.512,1.096,0.466,0.820,0.775,�k�k��,7.0,�L
2018/08/30,16:20,0.823,1.202,0.847,1.511,1.097,0.467,0.818,0.776,�k,10.6,�L
2018/08/30,16:30,0.820,1.203,0.846,1.509,1.097,0.466,0.818,0.773,�k,10.2,�L
2018/08/30,16:40,0.818,1.202,0.846,1.510,1.097,0.465,0.820,0.775,�k,9.3,��
2018/08/30,16:50,0.820,1.203,0.847,1.510,1.097,0.464,0.817,0.775,�k,8.9,�L
2018/08/30,17:00,0.818,1.204,0.848,1.511,1.096,0.465,0.819,0.775,�k,5.3,�L
2018/08/30,17:10,0.819,1.200,0.847,1.511,1.094,0.463,0.820,0.775,�k�k��,2.8,��
2018/08/30,17:20,0.818,1.203,0.847,1.512,1.096,0.464,0.820,0.774,�k,5.7,��
2018/08/30,17:30,0.818,1.200,0.846,1.510,1.094,0.464,0.819,0.775,�k�k��,4.3,��
2018/08/30,17:40,0.819,1.200,0.848,1.511,1.096,0.464,0.820,0.774,�k�k��,2.3,��
2018/08/30,17:50,0.818,1.201,0.847,1.510,1.095,0.465,0.818,0.778,�k,2.2,��
2018/08/30,18:00,0.819,1.203,0.850,1.515,1.099,0.463,0.818,0.775,�k,3.1,��
2018/08/30,18:10,0.820,1.203,0.848,1.512,1.094,0.463,0.819,0.774,�k�k��,2.9,��
2018/08/30,18:20,0.819,1.200,0.847,1.512,1.097,0.464,0.818,0.776,�k�k��,2.0,��
2018/08/30,18:30,0.821,1.203,0.849,1.511,1.095,0.464,0.820,0.774,�k,2.2,��
2018/08/30,18:40,0.820,1.203,0.848,1.513,1.096,0.465,0.818,0.775,�k,1.2,��
2018/08/30,18:50,0.823,1.203,0.848,1.511,1.095,0.464,0.819,0.776,-,CALM,��
2018/08/30,19:00,0.820,1.203,0.850,1.511,1.096,0.464,0.818,0.774,��쓌,0.6,��
2018/08/30,19:10,0.821,1.203,0.848,1.512,1.096,0.464,0.821,0.774,-,CALM,��
2018/08/30,19:20,0.821,1.201,0.849,1.509,1.100,0.464,0.820,0.776,-,CALM,��
2018/08/30,19:30,0.821,1.204,0.849,1.511,1.096,0.464,0.819,0.776,��쐼,0.9,��
2018/08/30,19:40,0.821,1.203,0.849,1.511,1.099,0.466,0.819,0.777,�쐼,1.2,��
2018/08/30,19:50,0.822,1.203,0.848,1.512,1.097,0.467,0.819,0.776,��쐼,0.6,��
2018/08/30,20:00,0.821,1.204,0.848,1.509,1.096,0.465,0.820,0.775,��쐼,0.6,��
2018/08/30,20:10,0.822,1.202,0.847,1.511,1.096,0.464,0.820,0.778,��쓌,0.8,��
2018/08/30,20:20,0.821,1.203,0.848,1.511,1.096,0.465,0.819,0.776,��,0.6,��
2018/08/30,20:30,0.821,1.204,0.848,1.508,1.098,0.464,0.820,0.775,�쐼,0.6,��
2018/08/30,20:40,0.822,1.201,0.848,1.511,1.096,0.467,0.821,0.777,��,0.8,��
2018/08/30,20:50,0.824,1.205,0.848,1.513,1.096,0.465,0.820,0.777,��쐼,1.4,��
2018/08/30,21:00,0.821,1.203,0.850,1.513,1.095,0.467,0.821,0.776,��쓌,1.2,��
2018/08/30,21:10,0.822,1.203,0.850,1.510,1.098,0.465,0.818,0.775,��쐼,1.2,��
2018/08/30,21:20,0.820,1.206,0.848,1.515,1.097,0.466,0.820,0.777,��,2.0,��
2018/08/30,21:30,0.822,1.203,0.850,1.512,1.098,0.465,0.818,0.775,��,1.1,��
2018/08/30,21:40,0.821,1.204,0.848,1.511,1.098,0.465,0.821,0.775,��,2.0,�L
2018/08/30,21:50,0.822,1.205,0.850,1.515,1.097,0.466,0.819,0.776,��,2.6,�L
2018/08/30,22:00,0.819,1.205,0.849,1.513,1.096,0.465,0.819,0.775,��,3.8,�L
2018/08/30,22:10,0.822,1.204,0.848,1.512,1.098,0.467,0.820,0.775,��쐼,3.4,�L
2018/08/30,22:20,0.821,1.203,0.849,1.513,1.096,0.468,0.821,0.777,��쐼,2.3,��
2018/08/30,22:30,0.821,1.204,0.850,1.513,1.098,0.467,0.820,0.776,��,3.0,��
2018/08/30,22:40,0.821,1.202,0.850,1.511,1.097,0.468,0.820,0.775,��쐼,3.7,��
2018/08/30,22:50,0.822,1.205,0.850,1.513,1.095,0.467,0.820,0.777,��,4.6,��
2018/08/30,23:00,0.819,1.205,0.850,1.514,1.096,0.467,0.820,0.776,��쐼,3.5,��
2018/08/30,23:10,0.821,1.204,0.852,1.516,1.099,0.467,0.821,0.778,��,3.9,��
2018/08/30,23:20,0.823,1.206,0.850,1.514,1.097,0.469,0.821,0.776,��,3.9,��
2018/08/30,23:30,0.823,1.206,0.854,1.513,1.099,0.469,0.822,0.777,��,3.7,��
2018/08/30,23:40,0.825,1.207,0.850,1.511,1.096,0.468,0.822,0.776,��쐼,3.4,��
2018/08/30,23:50,0.824,1.204,0.850,1.514,1.099,0.467,0.820,0.776,�쐼,2.3,��
